This is the latest recevied weather packets stored in our database for station/object S56IAR-13. If no packets are shown the sender has not sent any weather packets the latest 10 day(s).
| Time | Temp. | Humidity | Pressure | Rain* | Wind** | Luminosity | Snow |
|---|---|---|---|---|---|---|---|
| 1778020505 | 11.11° C | 97% | 959.7 hPa | 0 mm | - | 0 W/m² | - |
| 1778017205 | 11.11° C | 97% | 959.8 hPa | 0 mm | - | 0 W/m² | - |
| 1778013004 | 11.67° C | 97% | 960 hPa | 0 mm | - | 0 W/m² | - |
| 1778012104 | 11.67° C | 96% | 960.2 hPa | 0 mm | - | 0 W/m² | - |
| 1778011805 | 11.67° C | 97% | 960.4 hPa | 0.25 mm | - | 0 W/m² | - |
| 1778010905 | 11.67° C | 98% | 960.1 hPa | 0.25 mm | - | 0 W/m² | - |
| 1778010604 | 11.67° C | 97% | 960.1 hPa | 0.25 mm | - | 0 W/m² | - |
| 1778009405 | 11.67° C | 98% | 959.8 hPa | 0.25 mm | - | 0 W/m² | - |
| 1778009105 | 11.67° C | 98% | 959.9 hPa | 0.25 mm | - | 0 W/m² | - |
| 1778008205 | 11.67° C | 97% | 959.9 hPa | 0 mm | - | 0 W/m² | - |
| 1778001903 | 11.67° C | 97% | 959.9 hPa | 0.76 mm | - | 4 W/m² | - |
| 1778001005 | 11.67° C | 96% | 959.7 hPa | 0.51 mm | - | 5 W/m² | - |
| 1777995904 | 12.22° C | 91% | 960.4 hPa | 0 mm | - | 43 W/m² | - |
| 1777991235 | 13.33° C | 80% | 960.4 hPa | 0 mm | - | 51 W/m² | - |
| 1777990505 | 13.33° C | 79% | 960.6 hPa | 0 mm | - | 31 W/m² | - |
| 1777989134 | 14.44° C | 75% | 960.6 hPa | 0 mm | - | 64 W/m² | - |
| 1777986603 | 14.44° C | 74% | 960.9 hPa | 0 mm | - | 88 W/m² | - |
| 1777986305 | 14.44° C | 76% | 960.8 hPa | 0 mm | - | 106 W/m² | - |
| 1777985106 | 14.44° C | 73% | 961 hPa | 0 mm | - | 57 W/m² | - |
| 1777984635 | 14.44° C | 74% | 961.1 hPa | 0 mm | - | 78 W/m² | - |
| 1777981206 | 15° C | 73% | 961.3 hPa | 0 mm | - | 103 W/m² | - |
| 1777980904 | 15° C | 73% | 961.5 hPa | 0 mm | - | 132 W/m² | - |
| 1777979410 | 14.44° C | 74% | 961.6 hPa | 0 mm | - | 105 W/m² | - |
| 1777977005 | 15.56° C | 67% | 961.8 hPa | 0 mm | - | 191 W/m² | - |
| 1777975504 | 15.56° C | 66% | 961.6 hPa | 0 mm | - | 207 W/m² | - |
* Rain latest hour (hover to see other rain measurements)
** Current wind speed in m/s (hover to see current wind gust speed)